Sisseton, SD

9:38 PM CDT on May 22, 2018 (GMT -0500)
Sisseton

Weather History for K8D3 - June, 2012

Change the Weather History Date:

Monday, June 25, 2012

  Actual Average Record
Temperature  
Mean Temperature 68 °F 68 °F  
Max Temperature 80 °F 80 °F 103 °F (1936)
Min Temperature 56 °F 57 °F 43 °F (1958)
Degree Days  
Heating Degree Days 0 1  
Month to date heating degree days 27 58  
Since 1 June heating degree days 27 58  
Since 1 July heating degree days 6645 8279  
Cooling Degree Days 3 4  
Month to date cooling degree days 126 70  
Year to date cooling degree days 184 93  
Since 1 June cooling degree days 126 70  
Growing Degree Days 18 (Base 50)    
Moisture  
Dew Point 53 °F    
Average Humidity 63    
Maximum Humidity 93    
Minimum Humidity 33    
Precipitation  
Precipitation 0.00 in 0.12 in 1.10 in (1956)
Month to date precipitation 2.62 3.22  
Year to date precipitation 10.90 10.20  
Sea Level Pressure  
Sea Level Pressure 30.02 in    
Wind  
Wind Speed 11 mph (SSE)    
Max Wind Speed 23 mph    
Max Gust Speed 29 mph    
T = Trace of Precipitation, MM = Missing Value Source: NWS Daily Summary

Daily Weather History Graph

Daily Weather History Graph

Search for Another Location

Airport or City:

Astronomy

Jun. 25, 2012 Rise Set
Actual Time 5:39 AM CDT 9:21 PM CDT
Civil Twilight 5:01 AM CDT 9:59 PM CDT
Nautical Twilight 4:10 AM CDT 10:50 PM CDT
Astronomical Twilight 3:00 AM CDT 12:00 AM CDT
Moon 12:11 PM CDT (6/25) 12:02 AM CDT (6/25)
Length of Visible Light 16h 57m
Length of Day
15h 41m
Waxing Crescent, 34% of the Moon is Illuminated
Jun 25
Waxing Crescent
Jun 26
First Quarter
Jul 3
Full
Jul 10
Last Quarter
Jul 18
New

Hourly Weather History & Observations

Time (CDT) Temp. Heat Index Dew Point Humidity Pressure Visibility Wind Dir Wind Speed Gust Speed Precip Events Conditions
12:56 AM 62.1 °F - 57.0 °F 84% 30.06 in - North 3.5 mph - N/A   Unknown
1:56 AM 61.0 °F - 55.9 °F 83% 30.07 in - Calm Calm - N/A   Unknown
2:56 AM 60.1 °F - 55.9 °F 86% 30.08 in - Calm Calm - N/A   Unknown
3:56 AM 57.0 °F - 55.0 °F 93% 30.07 in - East 3.5 mph - N/A   Unknown
4:56 AM 57.9 °F - 55.0 °F 90% 30.08 in - Calm Calm - N/A   Unknown
5:56 AM 57.0 °F - 55.0 °F 93% 30.09 in - Calm Calm - N/A   Unknown
6:56 AM 59.0 °F - 57.0 °F 93% 30.09 in - Calm Calm - N/A   Unknown
7:56 AM 64.9 °F - 55.9 °F 73% 30.09 in - SSE 11.5 mph - N/A   Unknown
8:56 AM 68.0 °F - 53.1 °F 59% 30.09 in - South 13.8 mph 21.9 mph N/A   Unknown
9:56 AM 71.1 °F - 50.0 °F 47% 30.09 in - SSE 19.6 mph - N/A   Unknown
10:56 AM 73.0 °F - 48.9 °F 42% 30.07 in - SSE 23.0 mph 27.6 mph N/A   Unknown
11:56 AM 73.9 °F - 48.9 °F 41% 30.06 in - SSE 17.3 mph 25.3 mph N/A   Unknown
12:56 PM 75.9 °F - 48.9 °F 38% 30.05 in - SSE 16.1 mph 23.0 mph N/A   Unknown
1:56 PM 77.0 °F - 46.0 °F 33% 30.04 in - SSE 16.1 mph 21.9 mph N/A   Unknown
2:56 PM 79.0 °F - 48.9 °F 35% 30.01 in - SSE 13.8 mph 21.9 mph N/A   Unknown
3:56 PM 80.1 °F - 52.0 °F 38% 30.00 in - SSE 13.8 mph - N/A   Unknown
4:56 PM 80.1 °F - 51.1 °F 36% 29.97 in - SSE 12.7 mph - N/A   Unknown
5:56 PM 80.1 °F 80.0 °F 54.0 °F 40% 29.94 in - SSE 13.8 mph - N/A   Unknown
6:56 PM 79.0 °F - 57.0 °F 47% 29.92 in - SSE 15.0 mph 20.7 mph N/A   Unknown
7:56 PM 78.1 °F - 59.0 °F 52% 29.89 in - SE 13.8 mph - N/A   Unknown
8:56 PM 75.0 °F - 57.9 °F 55% 29.88 in - SE 10.4 mph - N/A   Unknown
9:56 PM 71.1 °F - 53.1 °F 53% 29.89 in - SE 12.7 mph - N/A   Unknown
10:56 PM 69.1 °F - 52.0 °F 54% 29.92 in - SSE 9.2 mph - N/A   Unknown
11:56 PM 68.0 °F - 52.0 °F 56% 29.91 in - South 6.9 mph - N/A   Unknown